Hourly Data Report for January 06, 2022

RANKIN INLET A
NUNAVUT
Current Station Operator: NAVCAN

62°48'38.000" N
92°06'53.000" W
32.30 m
2303405
71083
YRT

Download Data

Hourly Data (January 2022)
Hourly Data Report for January 6, 2022
TIME
LST
Temp Definition
°C
Dew Point Definition
°C
Rel Hum Definition
%
Precip. Amount Definition
mm

Wind Dir Definition
10's deg

Wind Spd Definition
km/h
Visibility Definition
km
Stn Press Definition
kPa
Hmdx Definition


Wind Chill Definition


Weather Definition


00:00 -35.4 -39.7 66   26 15 24.1 100.80   -48 Clear
01:00 -35.3 -39.6 66   27 17 24.1 100.74   -49 LegendNANA
02:00 -35.4 -39.7 66   28 13 24.1 100.66   -47 LegendNANA
03:00 -35.9 -40.2 66   26 8 24.1 100.61   -45 Clear
04:00 -35.6 -39.8 66   27 11 24.1 100.55   -46 LegendNANA
05:00 -35.8 -40.0 66   26 11 24.1 100.49   -47 LegendNANA
06:00 -35.9 -40.1 66   26 11 24.1 100.42   -47 Clear
07:00 -35.9 -40.1 67   28 7 24.1 100.36   -44 LegendNANA
08:00 -35.7 -39.8 67   26 9 24.1 100.25   -45 LegendNANA
09:00 -35.6 -39.7 67   25 10 24.1 100.20   -46 Clear
10:00 -35.1 -39.2 67   25 14 24.1 100.13   -47 LegendNANA
11:00 -34.9 -39.0 67   25 10 24.1 100.07   -45 Ice Crystals
12:00 -34.3 -38.4 67   24 8 24.1 99.97   -43 Ice Crystals
13:00 -33.5 -37.5 68   20 7 24.1 99.92   -41 Ice Crystals
14:00 -33.1 -37.1 68   25 13 24.1 99.87   -44 Ice Crystals
15:00 -33.0 -37.0 68   23 9 24.1 99.83   -42 Ice Crystals
16:00 -32.9 -37.0 68   22 9 24.1 99.77   -42 Ice Crystals
17:00 -32.5 -36.6 68   21 12 24.1 99.72   -43 Ice Crystals
18:00 -31.8 -35.9 68   21 12 24.1 99.65   -42 Ice Crystals
19:00 -30.8 -34.8 69   22 12 16.1 99.58   -41 Ice Crystals
20:00 -29.5 -33.5 69   19 10 16.1 99.51   -39 Snow,Ice Crystals
21:00 -29.3 -33.2 70   16 10 16.1 99.44   -38 Snow,Ice Crystals
22:00 -28.4 -32.2 70   20 11 16.1 99.41   -38 Snow,Ice Crystals
23:00 -27.6 -31.4 71   22 12 9.7 99.33   -37 Snow,Ice Crystals

Notes on Data Quality.

Legend

  • E = Estimated
  • M = Missing
  • NA = Not Available*
  • [empty] = Indicates an unobserved value
Date modified: